Regional Weather Roundup
Issued by NWS

Home | Current Version | Previous Version | Text Only | Print | Product List | Glossary On
Versions: 1 2 3 4 5 6 7 8 9 10 11 12 13 14 15 16 17 18 19 20 21 22 23 24 25 26 27 28 29 30 31 32 33 34 35 36 37 38 39 40 41 42 43 44 45 46 47 48 49 50
000
ASUS43 KMPX 220801
RWRMN
WEATHER ROUNDUP FOR MINNESOTA
NATIONAL WEATHER SERVICE TWIN CITIES/CHANHASSEN MN
200 AM CST SUN JAN 22 2017


NOTE: "FAIR" INDICATES FEW OR NO CLOUDS BELOW 12,000 FEET WITH NO
SIGNIFICANT WEATHER AND/OR OBSTRUCTIONS TO VISIBILITY. N/A MEANS
CURRENT SKY AND/OR WEATHER CONDITIONS ARE NOT AVAILABLE.

MNZ060>063-068>070-220900-
   Twin Cities Metro

CITY           SKY/WX    TMP DP  RH WIND       PRES   REMARKS
TWIN CITIES    CLOUDY    35  34  96 NW6       29.56R FOG     WCI  30
ST PAUL        CLOUDY    35  35 100 NW6       29.57R WCI  30
CRYSTAL        FOG       35  33  92 NW5       29.56R VSB 1/4 WCI  31
BLAINE         FOG       37  37 100 NW5       29.56S VSB 1/2
LAKEVILLE      FOG       34  34 100 NW5       29.56R VSB 1/4 WCI  30
EDEN PRAIRIE   CLOUDY    35  34  96 NW5       29.55S FOG     WCI  31
SOUTH ST PAUL  CLOUDY    35  35 100 CALM      29.56R FOG
LAKE ELMO      FOG       34  34 100 NW3       29.56S VSB 1
$$
MNZ001>005-007-008-013>017-022>024-027-028-220900-
   Northwest Minnesota

CITY           SKY/WX    TMP DP  RH WIND       PRES   REMARKS
BEMIDJI        CLOUDY    32  32 100 CALM      29.59R FOG
HALLOCK        LGT RAIN  34  34 100 CALM      29.61R
ROSEAU         HAZE      34  28  80 CALM      29.61R VSB 1/4
WARROAD        CLOUDY    34  28  80 E5        29.61R FOG     WCI  30
THIEF RVR FALL FOG       33  32  96 SE3       29.62R VSB 1/2
CROOKSTON      SNOW      34  34 100 CALM      29.62R VSB 1/4
FOSSTON        FOG       30  30 100 CALM      29.60S VSB 1
DETROIT LAKES  FOG       34  34 100 CALM      29.61R VSB 1/2
MOORHEAD       FOG       34  32  93 CALM      29.62R VSB 1/4
PARK RAPIDS    FOG       34  31  88 CALM      29.58R VSB 3/4
MAHNOMEN       FOG       33  33  99 CALM      29.60R VSB 3/4
$$
MNZ006-009>011-018-025>026-220900-
   North Central Minnesota

CITY           SKY/WX    TMP DP  RH WIND       PRES   REMARKS
BAUDETTE       FOG       33  33 100 CALM      29.60R VSB 1/2
FLAG ISLAND    CLOUDY    34  34 100 CALM      29.61R
INTL FALLS     FOG       34  33  96 NE3       29.60S VSB 1/2
WASKISH        FOG       34  34 100 CALM      29.60R VSB 3/4
BIG FORK       FOG       34  34 100 CALM      29.59R VSB 3/4
LONGVILLE      CLOUDY    34  34 100 CALM      29.58R FOG
GRAND RAPIDS   FOG       34  33  96 CALM      29.59R VSB 1/4
CRANE LAKE     CLOUDY    32  30  93 CALM      29.61S FOG
ORR            FOG       34  30  86 CALM      29.56S VSB 1
COOK           FOG       34  34 100 CALM      29.58S VSB 3/4
WALKER         FOG       33  33 100 CALM      29.58S VSB 1
$$
MNZ012-019>021-037-220900-
   Northeast Minnesota

CITY           SKY/WX    TMP DP  RH WIND       PRES   REMARKS
DULUTH         CLOUDY    35  34  96 N6        29.55R WCI  30
ELY            CLOUDY    34  34 100 CALM      29.57R FOG
HIBBING        CLOUDY    33  33 100 N3        29.56S
EVELETH        LGT RAIN  35  35  99 CALM      29.58R
DULUTH HARBOR  CLOUDY    36  34  93 N8        29.58R
TWO HARBORS    CLOUDY    37  34  87 CALM      29.55R
SILVER BAY     CLOUDY    36  36 100 NE3       29.55R FOG
GRAND MARAIS     N/A     37  34  89 NE5       29.57R
G MARAIS ARPRT CLOUDY    30  28  93 N6        29.55R FOG     WCI  24
$$
MNZ029>031-032-039>041-046>048-054>057-064-220900-
   West Central Minnesota

CITY           SKY/WX    TMP DP  RH WIND       PRES   REMARKS
FERGUS FALLS   FOG       34  34 100 CALM      29.63S VSB 1/2
WHEATON        CLOUDY    39  39 100 NW3       29.64R FOG
MORRIS         FOG       34  34 100 CALM      29.59R VSB<1/4
ALEXANDRIA     FOG       34  33  96 N6        29.58R VSB 3/4 WCI  29
ELBOW LAKE     LGT SNOW  32  32 100 CALM      29.60R VSB 3/4
WADENA         FOG       32  32 100 CALM      29.58S VSB 1/2
GLENWOOD       FOG       34  34 100 CALM      29.59R VSB 1/4
APPLETON       FOG       34  34 100 W3        29.61R VSB 1
ORTONVILLE     CLOUDY    34  32  93 CALM      29.61R FOG
MADISON        FOG       36  36 100 NW7       29.60S VSB 1
WILLMAR        CLOUDY    34  34 100 CALM      29.60R FOG
$$
MNZ033>034-036-042>043-049>051-058-059-220900-
   Central Minnesota

CITY           SKY/WX    TMP DP  RH WIND       PRES   REMARKS
ST CLOUD       CLOUDY    33  33 100 N3        29.57R FOG
SAUK CENTRE    FOG       33  33 100 CALM      29.58R VSB 1/2
PAYNESVILLE    FOG       33  33 100 N3        29.58S VSB 1/2
AITKIN         FOG       36  32  87 CALM      29.56S VSB 1/2
PINE RIVER     CLOUDY    34  34 100 CALM      29.62S FOG
BRAINERD       FOG       33  33 100 CALM      29.58S VSB 1/2
STAPLES        FOG       32  32 100 CALM      29.59R VSB 1/4
LONG PRAIRIE   LGT SNOW  32  32 100 NW3       29.57S VSB 3/4
LITTLE FALLS   FOG       34  32  93 CALM      29.58R VSB 1/2
LITCHFIELD     FOG       36  34  93 NW3       29.58R VSB 1/2
BUFFALO        FOG       34  33  97 CALM      29.58R VSB 1/4
MAPLE LAKE     FOG       35  35 100 NW3       29.58R VSB 1/4
HUTCHINSON     FOG       34  34 100 NW3       29.58R VSB 1/2
$$
MNZ037-044-045-052-053-220900-
   East Central Minnesota

CITY           SKY/WX    TMP DP  RH WIND       PRES   REMARKS
PRINCETON      FOG       36  34  93 NW3       29.57S VSB 1/4
MORA           CLOUDY    34  32  93 CALM      29.58R FOG
CAMBRIDGE      CLOUDY    36  36 100 CALM      29.56R FOG
RUSH CITY      CLOUDY    34  32  93 N5        29.56R FOG     WCI  30
MOOSE LAKE     FOG       34  32  93 CALM      29.55R VSB 1
HINCKLEY       FOG       34  34 100 N5        29.56S VSB 1   WCI  30
CLOQUET        CLOUDY    34  34 100 CALM      29.56R FOG
MCGREGOR       CLOUDY    34  34 100 NW3       29.57S VSB 1/2
$$
MNZ071>073-080-081-089-090-097-098-220900-
   Southwest Minnesota

CITY           SKY/WX    TMP DP  RH WIND       PRES   REMARKS
MONTEVIDEO     FOG       34  34 100 NW3       29.61R VSB 1/2
GRANITE FALLS  FOG       34  34 100 W6        29.61R VSB 1/4 WCI  29
CANBY          CLOUDY    34  34 100 CALM      29.61R FOG
MARSHALL       FOG       33  32  96 NW10      29.59R VSB 1/2 WCI  25
REDWOOD FALLS  FOG       34  32  92 W6        29.57R VSB 1/4 WCI  29
OLIVIA         FOG       34  34 100 N5        29.57S VSB 1/2 WCI  30
PIPESTONE      CLOUDY    32  32 100 NW5       29.58R FOG     WCI  27
WINDOM         SNOW      34  34 100 NW8       29.57R VSB 1/2 WCI  27
WORTHINGTON    CLOUDY    32  31  96 NW9       29.58R FOG     WCI  24
JACKSON        CLOUDY    32  32 100 W8        29.57R FOG     WCI  25
TRACY          FOG       34  34 100 NW8       29.59R VSB 1/2 WCI  27
SLAYTON        CLOUDY    32  32  99 NW9       29.58R FOG     WCI  24
$$
MNZ065>067-074>077-082>085-091>093-220900-
   South Central Minnesota

CITY           SKY/WX    TMP DP  RH WIND       PRES   REMARKS
MANKATO        FOG       33  33 100 CALM      29.57R VSB 1/4
NEW ULM        FOG       34  34 100 CALM      29.56S VSB 1/2
ST JAMES       FOG       34  34 100 W7        29.58R VSB 1/2 WCI  28
FAIRMONT       FOG       33  32  96 NW9       29.56R VSB 1   WCI  25
GLENCOE        FOG       34  35 100 CALM      29.56S VSB 1/2
OWATONNA       FOG       34  32  93 CALM      29.55S VSB 1/4
WASECA         FOG       32  32 100 CALM      29.57R VSB 1/4
ALBERT LEA     FOG       32  32 100 W3        29.55R VSB 1/4
$$
MNZ078>079-086>088-094>096-220900-
   Southeast Minnesota

CITY           SKY/WX    TMP DP  RH WIND       PRES   REMARKS
ROCHESTER      CLOUDY    33  33 100 W6        29.54S FOG     WCI  28
RED WING       FOG       36  34  93 CALM      29.56R VSB 1/4
STANTON        FOG       34  33  96 CALM      29.55R VSB 1
DODGE CENTER   FOG       32  32 100 CALM      29.54S VSB 1/4
WINONA         CLOUDY    34  34 100 CALM      29.57R FOG
AUSTIN         CLOUDY    34  32  93 CALM      29.54S FOG
PRESTON        CLOUDY    33  32  98 N3        29.55S
$$
ABBREVIATIONS USED IN REMARKS
   TC - TEMPERATURES IN CELSIUS
  WCI - WIND CHILL INDEX
   HX - HEAT INDEX
  VSB - VISIBILITY
$$




USA.gov is the U.S. government's official web portal to all federal, state and local government web resources and services.